2023/09/16 00:00:00,63.8,22.0
2023/09/16 00:10:00,63.6,22.0
2023/09/16 00:20:00,63.6,21.9
2023/09/16 00:30:00,63.5,21.9
2023/09/16 00:40:00,64.0,21.9
2023/09/16 00:50:00,63.8,21.9
2023/09/16 01:00:00,64.1,21.7
2023/09/16 01:10:00,64.2,22.0
2023/09/16 01:20:00,63.9,22.0
2023/09/16 01:30:00,64.3,22.0
2023/09/16 01:40:00,---,22.2
2023/09/16 01:50:00,72.9,22.1
2023/09/16 02:00:00,49.9,22.2
2023/09/16 02:10:00,---,22.1
2023/09/16 02:20:00,83.6,22.1
2023/09/16 02:30:00,64.4,21.9
2023/09/16 02:40:00,74.0,22.0
2023/09/16 02:50:00,---,21.9
2023/09/16 03:00:00,103.1,22.2
2023/09/16 03:10:00,64.2,22.1
2023/09/16 03:20:00,64.1,21.8
2023/09/16 03:30:00,73.9,22.0
2023/09/16 03:40:00,64.0,21.9
2023/09/16 03:50:00,63.8,21.9
2023/09/16 04:00:00,63.8,22.0
2023/09/16 04:10:00,63.8,21.8
2023/09/16 04:20:00,63.8,21.8
2023/09/16 04:30:00,63.5,21.5
2023/09/16 04:40:00,63.6,21.3
2023/09/16 04:50:00,63.6,21.7
2023/09/16 05:00:00,63.6,21.4
2023/09/16 05:10:00,63.6,21.2
2023/09/16 05:20:00,63.6,20.9
2023/09/16 05:30:00,63.5,20.8
2023/09/16 05:40:00,63.6,20.8
2023/09/16 05:50:00,63.6,20.9
2023/09/16 06:00:00,63.6,20.8
2023/09/16 06:10:00,63.6,20.8
2023/09/16 06:20:00,63.8,20.7
2023/09/16 06:30:00,63.6,21.0
2023/09/16 06:40:00,63.5,21.0
2023/09/16 06:50:00,63.7,21.2
2023/09/16 07:00:00,64.1,21.3
2023/09/16 07:10:00,63.9,21.5
2023/09/16 07:20:00,63.9,21.5
2023/09/16 07:30:00,63.7,21.8
2023/09/16 07:40:00,63.7,21.7
2023/09/16 07:50:00,63.6,22.3
2023/09/16 08:00:00,63.4,22.3
2023/09/16 08:10:00,63.6,22.6
2023/09/16 08:20:00,63.1,23.0
2023/09/16 08:30:00,63.3,23.0
2023/09/16 08:40:00,---,24.0
2023/09/16 08:50:00,62.7,24.0
2023/09/16 09:00:00,63.0,24.5
2023/09/16 09:10:00,62.8,24.9
2023/09/16 09:20:00,62.7,25.2
2023/09/16 09:30:00,63.1,25.6
2023/09/16 09:40:00,62.8,25.7
2023/09/16 09:50:00,62.9,26.0
2023/09/16 10:00:00,---,26.7
2023/09/16 10:10:00,62.2,26.4
2023/09/16 10:20:00,62.6,27.1
2023/09/16 10:30:00,61.5,28.2
2023/09/16 10:40:00,59.0,28.8
2023/09/16 10:50:00,56.4,28.9
2023/09/16 11:00:00,55.8,28.4
2023/09/16 11:10:00,56.7,27.3
2023/09/16 11:20:00,57.9,28.0
2023/09/16 11:30:00,57.8,27.2
2023/09/16 11:40:00,59.4,26.1
2023/09/16 11:50:00,60.4,25.9
2023/09/16 12:00:00,60.7,26.6
2023/09/16 12:10:00,59.5,26.3
2023/09/16 12:20:00,59.6,26.1
2023/09/16 12:30:00,59.5,26.6
2023/09/16 12:40:00,58.9,26.4
2023/09/16 12:50:00,58.5,27.1
2023/09/16 13:00:00,58.8,26.6
2023/09/16 13:10:00,58.7,26.8
2023/09/16 13:20:00,58.5,28.5
2023/09/16 13:30:00,54.9,28.2
2023/09/16 13:40:00,52.9,27.6
2023/09/16 13:50:00,51.5,28.1
2023/09/16 14:00:00,53.7,27.4
2023/09/16 14:10:00,54.0,27.5
2023/09/16 14:20:00,44.6,28.5
2023/09/16 14:30:00,23.4,28.2
2023/09/16 14:40:00,36.8,26.9
2023/09/16 14:50:00,56.0,26.5
2023/09/16 15:00:00,58.3,27.6
2023/09/16 15:10:00,56.0,26.7
2023/09/16 15:20:00,57.3,26.8
2023/09/16 15:30:00,59.5,27.2
2023/09/16 15:40:00,58.7,26.3
2023/09/16 15:50:00,59.1,25.6
2023/09/16 16:00:00,60.3,25.2
2023/09/16 16:10:00,60.6,24.9
2023/09/16 16:20:00,60.2,24.0
2023/09/16 16:30:00,59.1,23.6
2023/09/16 16:40:00,58.8,23.4
2023/09/16 16:50:00,60.5,23.7
2023/09/16 17:00:00,60.6,23.6
2023/09/16 17:10:00,60.7,23.7
2023/09/16 17:20:00,60.9,23.5
2023/09/16 17:30:00,61.1,23.5
2023/09/16 17:40:00,61.1,23.2
2023/09/16 17:50:00,61.3,23.0
2023/09/16 18:00:00,61.4,23.0
2023/09/16 18:10:00,61.4,22.8
2023/09/16 18:20:00,61.4,22.6
2023/09/16 18:30:00,61.4,22.8
2023/09/16 18:40:00,61.4,22.7
2023/09/16 18:50:00,61.4,22.6
2023/09/16 19:00:00,61.4,22.6
2023/09/16 19:10:00,61.4,22.5
2023/09/16 19:20:00,61.4,22.6
2023/09/16 19:30:00,61.4,22.2
2023/09/16 19:40:00,61.4,22.4
2023/09/16 19:50:00,61.4,22.2
2023/09/16 20:00:00,61.4,22.3
2023/09/16 20:10:00,61.4,22.3
2023/09/16 20:20:00,61.4,22.3
2023/09/16 20:30:00,61.4,22.2
2023/09/16 20:40:00,61.4,22.2
2023/09/16 20:50:00,61.4,22.3
2023/09/16 21:00:00,61.4,22.1
2023/09/16 21:10:00,61.4,22.2
2023/09/16 21:20:00,61.4,22.3
2023/09/16 21:30:00,61.4,22.1
2023/09/16 21:40:00,61.5,22.3
2023/09/16 21:50:00,61.5,22.3
2023/09/16 22:00:00,61.4,22.1
2023/09/16 22:10:00,61.4,22.2
2023/09/16 22:20:00,61.4,22.0
2023/09/16 22:30:00,61.4,22.1
2023/09/16 22:40:00,61.5,22.2
2023/09/16 22:50:00,61.4,21.9
2023/09/16 23:00:00,61.4,21.9
2023/09/16 23:10:00,61.4,21.9
2023/09/16 23:20:00,61.4,21.8
2023/09/16 23:30:00,61.6,21.6
2023/09/16 23:40:00,61.9,21.6
2023/09/16 23:50:00,61.5,21.6
